Time,TemperatureF,DewpointF,PressureIn,WindDirection,WindDirectionDegrees,WindSpeedMPH,WindSpeedGustMPH,Humidity,HourlyPrecipIn,Conditions,Clouds,dailyrainin,SolarRadiationWatts/m^2,SoftwareType,DateUTC
2013-06-04 00:00:00,64.6,59.7,29.92,SSE,150,0.0,0.0,84,0.00,,---,0.03,0.00,VWS V14.01,2013-06-04 04:00:00,
2013-06-04 00:01:00,64.6,59.7,29.92,SSE,150,0.0,0.0,84,0.00,,---,0.03,0.00,VWS V14.01,2013-06-04 04:01:00,
2013-06-04 00:04:00,64.6,59.7,29.92,SSE,150,0.0,0.0,84,0.00,,---,0.03,0.00,VWS V14.01,2013-06-04 04:04:00,
2013-06-04 00:05:00,64.6,59.7,29.92,SSE,150,0.0,0.0,84,0.00,,---,0.03,0.00,VWS V14.01,2013-06-04 04:05:00,
2013-06-04 00:10:00,64.5,59.9,29.92,SSE,150,0.0,0.0,85,0.00,,---,0.00,0.00,VWS V14.01,2013-06-04 04:10:00,
2013-06-04 00:15:00,64.4,59.5,29.92,SSE,150,0.0,1.0,84,0.00,,---,0.00,0.00,VWS V14.01,2013-06-04 04:15:00,
2013-06-04 00:20:00,64.4,59.5,29.92,SSE,150,0.0,0.0,84,0.00,,---,0.00,0.00,VWS V14.01,2013-06-04 04:20:00,
2013-06-04 00:25:00,64.3,59.4,29.92,SSE,150,0.0,0.0,84,0.00,,---,0.00,0.00,VWS V14.01,2013-06-04 04:25:00,
2013-06-04 00:30:00,64.3,59.7,29.92,SSE,150,0.0,0.0,85,0.00,,---,0.00,0.00,VWS V14.01,2013-06-04 04:30:00,
2013-06-04 00:35:00,64.2,59.6,29.92,SSE,150,0.0,0.0,85,0.00,,---,0.00,0.00,VWS V14.01,2013-06-04 04:35:00,
2013-06-04 00:40:00,64.1,59.5,29.91,SSE,150,0.0,0.0,85,0.00,,---,0.00,0.00,VWS V14.01,2013-06-04 04:40:00,
2013-06-04 00:45:00,63.9,59.3,29.91,SSE,150,0.0,1.0,85,0.00,,---,0.00,0.00,VWS V14.01,2013-06-04 04:45:00,
2013-06-04 00:50:00,63.8,59.2,29.92,SSE,150,0.0,0.0,85,0.00,,---,0.00,0.00,VWS V14.01,2013-06-04 04:50:00,
2013-06-04 00:55:00,63.6,59.3,29.92,SSE,150,0.0,0.0,86,0.00,,---,0.00,0.00,VWS V14.01,2013-06-04 04:55:00,
2013-06-04 01:00:00,63.4,59.2,29.92,SSE,150,0.0,0.0,86,0.00,,---,0.00,0.00,VWS V14.01,2013-06-04 05:00:00,
2013-06-04 01:05:00,63.3,59.0,29.91,SSE,150,0.0,0.0,86,0.00,,---,0.00,0.00,VWS V14.01,2013-06-04 05:05:00,
2013-06-04 01:10:00,63.2,59.3,29.91,SSE,150,0.0,0.0,87,0.00,,---,0.00,0.00,VWS V14.01,2013-06-04 05:10:00,
2013-06-04 01:15:00,63.0,59.1,29.91,SSE,150,0.0,0.0,87,0.00,,---,0.00,0.00,VWS V14.01,2013-06-04 05:15:00,
2013-06-04 01:20:00,62.8,58.9,29.91,SSE,150,0.0,0.0,87,0.00,,---,0.00,0.00,VWS V14.01,2013-06-04 05:20:00,
2013-06-04 01:25:00,62.7,58.8,29.91,SSE,150,0.0,0.0,87,0.00,,---,0.00,0.00,VWS V14.01,2013-06-04 05:25:00,
2013-06-04 01:31:00,62.6,59.0,29.91,SSE,150,0.0,0.0,88,0.00,,---,0.00,0.00,VWS V14.01,2013-06-04 05:31:00,
2013-06-04 01:36:00,62.5,58.9,29.91,SSE,150,0.0,0.0,88,0.00,,---,0.00,0.00,VWS V14.01,2013-06-04 05:36:00,
2013-06-04 01:41:00,62.3,58.7,29.91,SSE,150,0.0,0.0,88,0.00,,---,0.00,0.00,VWS V14.01,2013-06-04 05:41:00,
2013-06-04 01:46:00,62.1,58.5,29.91,SSE,150,0.0,1.0,88,0.00,,---,0.00,0.00,VWS V14.01,2013-06-04 05:46:00,
2013-06-04 01:51:00,62.2,58.9,29.91,SSE,150,0.0,1.0,89,0.00,,---,0.00,0.00,VWS V14.01,2013-06-04 05:51:00,
2013-06-04 01:56:00,62.2,58.6,29.91,SSE,150,0.0,1.0,88,0.00,,---,0.00,0.00,VWS V14.01,2013-06-04 05:56:00,
2013-06-04 02:01:00,62.2,58.6,29.91,SSE,150,0.0,1.0,88,0.00,,---,0.00,0.00,VWS V14.01,2013-06-04 06:01:00,
2013-06-04 02:06:00,62.2,58.6,29.91,SSE,150,0.0,2.0,88,0.00,,---,0.00,0.00,VWS V14.01,2013-06-04 06:06:00,
2013-06-04 02:12:00,62.2,58.6,29.91,SSE,150,0.0,0.0,88,0.00,,---,0.00,0.00,VWS V14.01,2013-06-04 06:12:00,
2013-06-04 02:17:00,62.0,58.4,29.91,SSE,150,0.0,0.0,88,0.00,,---,0.00,0.00,VWS V14.01,2013-06-04 06:17:00,
2013-06-04 02:22:00,61.8,58.2,29.91,SSE,150,0.0,0.0,88,0.00,,---,0.00,0.00,VWS V14.01,2013-06-04 06:22:00,
2013-06-04 02:27:00,61.7,58.4,29.91,SSE,150,0.0,0.0,89,0.00,,---,0.00,0.00,VWS V14.01,2013-06-04 06:27:00,
2013-06-04 02:32:00,61.6,58.3,29.91,SSE,150,0.0,1.0,89,0.00,,---,0.00,0.00,VWS V14.01,2013-06-04 06:32:00,
2013-06-04 02:37:00,61.6,58.3,29.90,SSE,150,0.0,1.0,89,0.00,,---,0.00,0.00,VWS V14.01,2013-06-04 06:37:00,
2013-06-04 02:42:00,61.4,58.1,29.90,SSE,150,0.0,0.0,89,0.00,,---,0.00,0.00,VWS V14.01,2013-06-04 06:42:00,
2013-06-04 02:47:00,61.2,57.9,29.90,SSE,150,0.0,0.0,89,0.00,,---,0.00,0.00,VWS V14.01,2013-06-04 06:47:00,
2013-06-04 02:52:00,61.1,57.8,29.90,SSE,150,0.0,0.0,89,0.00,,---,0.00,0.00,VWS V14.01,2013-06-04 06:52:00,
2013-06-04 02:57:00,60.9,58.0,29.90,SSE,150,0.0,0.0,90,0.00,,---,0.00,0.00,VWS V14.01,2013-06-04 06:57:00,
2013-06-04 03:02:00,60.8,58.2,29.90,SSE,150,0.0,0.0,91,0.00,,---,0.00,0.00,VWS V14.01,2013-06-04 07:02:00,
2013-06-04 03:07:00,60.5,57.6,29.90,SSE,150,0.0,0.0,90,0.00,,---,0.00,0.00,VWS V14.01,2013-06-04 07:07:00,
2013-06-04 03:12:00,60.4,57.8,29.90,SSE,150,0.0,0.0,91,0.00,,---,0.00,0.00,VWS V14.01,2013-06-04 07:12:00,
2013-06-04 03:17:00,60.2,57.6,29.90,SSE,150,0.0,0.0,91,0.00,,---,0.00,0.00,VWS V14.01,2013-06-04 07:17:00,
2013-06-04 03:22:00,60.2,57.9,29.90,SSE,150,0.0,0.0,92,0.00,,---,0.00,0.00,VWS V14.01,2013-06-04 07:22:00,
2013-06-04 03:27:00,60.3,58.0,29.90,SSE,150,0.0,0.0,92,0.00,,---,0.00,0.00,VWS V14.01,2013-06-04 07:27:00,
2013-06-04 03:32:00,60.2,57.9,29.90,SSE,150,0.0,0.0,92,0.00,,---,0.00,0.00,VWS V14.01,2013-06-04 07:32:00,
2013-06-04 03:37:00,60.0,57.4,29.90,SSE,150,0.0,0.0,91,0.00,,---,0.00,0.00,VWS V14.01,2013-06-04 07:37:00,
2013-06-04 03:42:00,59.9,57.6,29.90,SSE,150,0.0,0.0,92,0.00,,---,0.00,0.00,VWS V14.01,2013-06-04 07:42:00,
2013-06-04 03:47:00,59.7,57.4,29.90,SSE,150,0.0,0.0,92,0.00,,---,0.00,0.00,VWS V14.01,2013-06-04 07:47:00,
2013-06-04 03:53:00,59.6,57.3,29.90,SSE,150,0.0,0.0,92,0.00,,---,0.00,0.00,VWS V14.01,2013-06-04 07:53:00,
2013-06-04 03:58:00,59.5,57.2,29.90,SSE,150,0.0,0.0,92,0.00,,---,0.00,0.00,VWS V14.01,2013-06-04 07:58:00,
2013-06-04 04:03:00,59.4,57.4,29.90,SSE,150,0.0,0.0,93,0.00,,---,0.00,0.00,VWS V14.01,2013-06-04 08:03:00,
2013-06-04 04:08:00,59.5,57.5,29.90,SSE,150,0.0,0.0,93,0.00,,---,0.00,0.00,VWS V14.01,2013-06-04 08:08:00,
2013-06-04 04:13:00,59.7,57.7,29.90,SSE,150,0.0,0.0,93,0.00,,---,0.00,0.00,VWS V14.01,2013-06-04 08:13:00,
2013-06-04 04:18:00,59.7,57.7,29.90,SSE,150,0.0,0.0,93,0.00,,---,0.00,0.00,VWS V14.01,2013-06-04 08:18:00,
2013-06-04 04:23:00,59.7,57.7,29.90,SSE,150,0.0,0.0,93,0.00,,---,0.00,0.00,VWS V14.01,2013-06-04 08:23:00,
2013-06-04 04:28:00,59.6,57.6,29.90,SSE,150,0.0,0.0,93,0.00,,---,0.00,0.00,VWS V14.01,2013-06-04 08:28:00,
2013-06-04 04:33:00,59.4,57.4,29.90,SSE,150,0.0,0.0,93,0.00,,---,0.00,0.00,VWS V14.01,2013-06-04 08:33:00,
2013-06-04 04:38:00,59.4,57.4,29.90,SSE,150,0.0,0.0,93,0.00,,---,0.00,0.00,VWS V14.01,2013-06-04 08:38:00,
2013-06-04 04:43:00,59.3,57.6,29.90,SSE,150,0.0,0.0,94,0.00,,---,0.00,0.00,VWS V14.01,2013-06-04 08:43:00,
2013-06-04 04:49:00,59.4,57.7,29.91,SSE,150,0.0,0.0,94,0.00,,---,0.00,0.00,VWS V14.01,2013-06-04 08:49:00,
2013-06-04 04:54:00,59.4,57.7,29.90,SSE,150,0.0,1.0,94,0.00,,---,0.00,0.00,VWS V14.01,2013-06-04 08:54:00,
2013-06-04 04:59:00,59.3,57.6,29.90,SSE,150,0.0,0.0,94,0.00,,---,0.00,0.00,VWS V14.01,2013-06-04 08:59:00,
2013-06-04 05:04:00,59.3,57.6,29.91,SSE,150,0.0,0.0,94,0.00,,---,0.00,0.00,VWS V14.01,2013-06-04 09:04:00,
2013-06-04 05:09:00,59.1,57.4,29.91,SSE,150,0.0,0.0,94,0.00,,---,0.00,0.00,VWS V14.01,2013-06-04 09:09:00,
2013-06-04 05:14:00,59.0,57.3,29.92,SSE,150,0.0,0.0,94,0.00,,---,0.00,0.00,VWS V14.01,2013-06-04 09:14:00,
2013-06-04 05:19:00,58.9,57.2,29.92,SSE,150,0.0,0.0,94,0.00,,---,0.00,0.00,VWS V14.01,2013-06-04 09:19:00,
2013-06-04 05:24:00,59.0,57.6,29.92,SSE,150,0.0,0.0,95,0.00,,---,0.00,0.00,VWS V14.01,2013-06-04 09:24:00,
2013-06-04 05:29:00,59.2,57.5,29.92,SSE,150,0.0,0.0,94,0.00,,---,0.00,0.00,VWS V14.01,2013-06-04 09:29:00,
2013-06-04 05:34:00,59.2,57.5,29.92,SSE,150,0.0,1.0,94,0.00,,---,0.00,0.00,VWS V14.01,2013-06-04 09:34:00,
2013-06-04 05:39:00,59.1,57.4,29.92,SSE,150,0.0,0.0,94,0.00,,---,0.00,0.00,VWS V14.01,2013-06-04 09:39:00,
2013-06-04 05:44:00,59.1,57.4,29.92,SSE,150,0.0,0.0,94,0.00,,---,0.00,0.00,VWS V14.01,2013-06-04 09:44:00,
2013-06-04 05:49:00,58.9,57.2,29.92,SSE,150,0.0,0.0,94,0.00,,---,0.00,0.00,VWS V14.01,2013-06-04 09:49:00,
2013-06-04 05:54:00,58.8,57.1,29.93,SSE,150,0.0,0.0,94,0.00,,---,0.00,0.00,VWS V14.01,2013-06-04 09:54:00,
2013-06-04 05:59:00,58.7,57.0,29.93,ESE,111,0.0,0.0,94,0.00,,---,0.00,0.00,VWS V14.01,2013-06-04 09:59:00,
2013-06-04 06:04:00,58.8,57.1,29.94,ESE,111,0.0,0.0,94,0.00,,---,0.00,0.00,VWS V14.01,2013-06-04 10:04:00,
2013-06-04 06:09:00,58.8,57.4,29.94,East,91,0.0,0.0,95,0.00,,---,0.00,0.00,VWS V14.01,2013-06-04 10:09:00,
2013-06-04 06:14:00,58.9,57.5,29.94,East,91,0.0,0.0,95,0.00,,---,0.00,0.00,VWS V14.01,2013-06-04 10:14:00,
2013-06-04 06:20:00,59.1,57.7,29.93,East,91,0.0,0.0,95,0.00,,---,0.00,5.00,VWS V14.01,2013-06-04 10:20:00,
2013-06-04 06:25:00,59.2,57.8,29.93,East,91,0.0,0.0,95,0.00,,---,0.00,7.00,VWS V14.01,2013-06-04 10:25:00,
2013-06-04 06:30:00,59.0,57.6,29.94,East,91,0.0,0.0,95,0.00,,---,0.00,9.00,VWS V14.01,2013-06-04 10:30:00,
2013-06-04 06:35:00,58.9,57.5,29.94,East,91,0.0,0.0,95,0.00,,---,0.00,12.00,VWS V14.01,2013-06-04 10:35:00,
2013-06-04 06:40:00,58.9,57.5,29.94,East,91,0.0,0.0,95,0.00,,---,0.00,18.00,VWS V14.01,2013-06-04 10:40:00,
2013-06-04 06:45:00,58.9,57.5,29.94,East,91,0.0,0.0,95,0.00,,---,0.00,18.00,VWS V14.01,2013-06-04 10:45:00,
2013-06-04 06:50:00,58.8,57.4,29.94,East,91,0.0,0.0,95,0.00,,---,0.00,18.00,VWS V14.01,2013-06-04 10:50:00,
2013-06-04 06:55:00,58.9,57.5,29.94,East,91,0.0,1.0,95,0.00,,---,0.00,19.00,VWS V14.01,2013-06-04 10:55:00,
2013-06-04 07:00:00,58.9,57.5,29.94,East,91,0.0,0.0,95,0.00,,---,0.00,23.00,VWS V14.01,2013-06-04 11:00:00,
2013-06-04 07:05:00,58.9,57.5,29.94,East,91,0.0,0.0,95,0.00,,---,0.00,25.00,VWS V14.01,2013-06-04 11:05:00,
2013-06-04 07:10:00,59.1,57.7,29.94,East,91,0.0,0.0,95,0.00,,---,0.00,28.00,VWS V14.01,2013-06-04 11:10:00,
2013-06-04 07:15:00,59.2,57.8,29.94,East,91,0.0,0.0,95,0.00,,---,0.00,30.00,VWS V14.01,2013-06-04 11:15:00,
2013-06-04 07:20:00,59.3,58.2,29.94,East,91,0.0,0.0,96,0.00,,---,0.00,32.00,VWS V14.01,2013-06-04 11:20:00,
2013-06-04 07:25:00,59.5,58.4,29.94,East,91,0.0,0.0,96,0.00,,---,0.00,35.00,VWS V14.01,2013-06-04 11:25:00,
2013-06-04 07:30:00,59.9,58.8,29.95,East,91,0.0,0.0,96,0.00,,---,0.00,37.00,VWS V14.01,2013-06-04 11:30:00,
2013-06-04 07:35:00,60.2,59.1,29.95,East,91,0.0,0.0,96,0.00,,---,0.00,37.00,VWS V14.01,2013-06-04 11:35:00,
2013-06-04 07:41:00,60.4,59.3,29.95,East,91,0.0,0.0,96,0.00,,---,0.00,39.00,VWS V14.01,2013-06-04 11:41:00,
2013-06-04 07:46:00,60.7,59.6,29.95,East,91,0.0,1.0,96,0.00,,---,0.00,40.00,VWS V14.01,2013-06-04 11:46:00,
2013-06-04 07:51:00,61.0,59.6,29.95,West,260,0.0,1.0,95,0.00,,---,0.00,44.00,VWS V14.01,2013-06-04 11:51:00,
2013-06-04 07:56:00,61.3,59.9,29.95,West,260,0.0,1.0,95,0.00,,---,0.00,49.00,VWS V14.01,2013-06-04 11:56:00,
2013-06-04 08:01:00,61.6,59.9,29.95,West,261,0.0,0.0,94,0.00,,---,0.00,62.00,VWS V14.01,2013-06-04 12:01:00,
2013-06-04 08:06:00,62.0,60.3,29.95,ESE,109,0.0,3.0,94,0.00,,---,0.00,77.00,VWS V14.01,2013-06-04 12:06:00,
2013-06-04 08:11:00,62.6,60.8,29.95,ESE,109,0.0,0.0,94,0.00,,---,0.00,243.00,VWS V14.01,2013-06-04 12:11:00,
2013-06-04 08:16:00,63.1,60.7,29.95,ENE,58,0.0,3.0,92,0.00,,---,0.00,262.00,VWS V14.01,2013-06-04 12:16:00,
2013-06-04 08:21:00,63.6,60.9,29.96,NE,53,0.0,0.0,91,0.00,,---,0.00,260.00,VWS V14.01,2013-06-04 12:21:00,
2013-06-04 08:26:00,64.3,61.6,29.96,NE,53,0.0,1.0,91,0.00,,---,0.00,294.00,VWS V14.01,2013-06-04 12:26:00,
2013-06-04 08:32:00,65.1,62.1,29.96,NE,53,0.0,1.0,90,0.00,,---,0.00,316.00,VWS V14.01,2013-06-04 12:32:00,
2013-06-04 08:37:00,65.9,62.2,29.96,NE,53,0.0,3.0,88,0.00,,---,0.00,336.00,VWS V14.01,2013-06-04 12:37:00,
2013-06-04 08:42:00,66.5,61.9,29.96,NE,53,1.0,3.0,85,0.00,,---,0.00,352.00,VWS V14.01,2013-06-04 12:42:00,
2013-06-04 08:47:00,67.1,61.8,29.96,NE,53,0.0,3.0,83,0.00,,---,0.00,367.00,VWS V14.01,2013-06-04 12:47:00,
2013-06-04 08:52:00,67.6,62.6,29.96,NE,53,0.0,1.0,84,0.00,,---,0.00,387.00,VWS V14.01,2013-06-04 12:52:00,
2013-06-04 08:57:00,68.0,62.3,29.96,NE,51,0.0,3.0,82,0.00,,---,0.00,410.00,VWS V14.01,2013-06-04 12:57:00,
2013-06-04 09:02:00,68.3,62.2,29.96,NE,52,0.0,1.0,81,0.00,,---,0.00,411.00,VWS V14.01,2013-06-04 13:02:00,
2013-06-04 09:07:00,68.8,63.1,29.97,NE,41,0.0,4.0,82,0.00,,---,0.00,443.00,VWS V14.01,2013-06-04 13:07:00,
2013-06-04 09:12:00,69.5,63.1,29.97,NE,35,0.0,4.0,80,0.00,,---,0.00,457.00,VWS V14.01,2013-06-04 13:12:00,
2013-06-04 09:17:00,69.9,63.1,29.97,NE,34,1.0,4.0,79,0.00,,---,0.00,478.00,VWS V14.01,2013-06-04 13:17:00,
2013-06-04 09:22:00,70.0,62.8,29.97,NE,34,0.0,2.0,78,0.00,,---,0.00,489.00,VWS V14.01,2013-06-04 13:22:00,
2013-06-04 09:27:00,70.3,63.5,29.97,NE,37,0.0,4.0,79,0.00,,---,0.00,492.00,VWS V14.01,2013-06-04 13:27:00,
2013-06-04 09:33:00,70.5,63.0,29.97,NNE,32,1.0,3.0,77,0.00,,---,0.00,524.00,VWS V14.01,2013-06-04 13:33:00,
2013-06-04 09:38:00,70.7,63.1,29.97,NE,44,2.0,3.0,77,0.00,,---,0.00,547.00,VWS V14.01,2013-06-04 13:38:00,
2013-06-04 09:43:00,71.0,63.4,29.97,NE,34,1.0,4.0,77,0.00,,---,0.00,561.00,VWS V14.01,2013-06-04 13:43:00,
2013-06-04 09:48:00,71.3,63.3,29.97,NE,36,0.0,4.0,76,0.00,,---,0.00,578.00,VWS V14.01,2013-06-04 13:48:00,
2013-06-04 09:53:00,71.7,63.4,29.97,NE,39,0.0,1.0,75,0.00,,---,0.00,601.00,VWS V14.01,2013-06-04 13:53:00,
2013-06-04 09:58:00,72.2,63.8,29.97,NE,41,0.0,2.0,75,0.00,,---,0.00,613.00,VWS V14.01,2013-06-04 13:58:00,
2013-06-04 10:03:00,72.6,63.5,29.97,NE,41,1.0,1.0,73,0.00,,---,0.00,633.00,VWS V14.01,2013-06-04 14:03:00,
2013-06-04 10:08:00,72.6,63.5,29.97,NE,41,0.0,3.0,73,0.00,,---,0.00,649.00,VWS V14.01,2013-06-04 14:08:00,
2013-06-04 10:13:00,72.8,64.0,29.97,NE,36,1.0,3.0,74,0.00,,---,0.00,663.00,VWS V14.01,2013-06-04 14:13:00,
2013-06-04 10:18:00,73.2,64.0,29.97,NNE,30,0.0,3.0,73,0.00,,---,0.00,679.00,VWS V14.01,2013-06-04 14:18:00,
2013-06-04 10:23:00,73.8,64.6,29.97,NNE,32,0.0,3.0,73,0.00,,---,0.00,694.00,VWS V14.01,2013-06-04 14:23:00,
2013-06-04 10:28:00,74.2,64.6,29.97,NE,34,1.0,4.0,72,0.00,,---,0.00,708.00,VWS V14.01,2013-06-04 14:28:00,
2013-06-04 10:34:00,74.2,63.8,29.97,NE,35,0.0,4.0,70,0.00,,---,0.00,726.00,VWS V14.01,2013-06-04 14:34:00,
2013-06-04 10:39:00,74.3,63.9,29.97,NE,36,0.0,1.0,70,0.00,,---,0.00,737.00,VWS V14.01,2013-06-04 14:39:00,
2013-06-04 10:44:00,74.4,64.0,29.97,NE,38,1.0,4.0,70,0.00,,---,0.00,749.00,VWS V14.01,2013-06-04 14:44:00,
2013-06-04 10:49:00,74.6,65.0,29.96,ESE,113,0.0,0.0,72,0.00,,---,0.00,740.00,VWS V14.01,2013-06-04 14:49:00,
2013-06-04 10:54:00,75.0,63.7,29.96,North,5,0.0,4.0,68,0.00,,---,0.00,403.00,VWS V14.01,2013-06-04 14:54:00,
2013-06-04 10:59:00,75.1,64.7,29.96,NE,43,1.0,4.0,70,0.00,,---,0.00,788.00,VWS V14.01,2013-06-04 14:59:00,
2013-06-04 11:04:00,75.1,64.7,29.96,NE,42,1.0,4.0,70,0.00,,---,0.00,786.00,VWS V14.01,2013-06-04 15:04:00,
2013-06-04 11:09:00,75.4,64.9,29.96,NNE,30,0.0,4.0,70,0.00,,---,0.00,795.00,VWS V14.01,2013-06-04 15:09:00,
2013-06-04 11:14:00,75.6,65.1,29.96,NE,36,0.0,6.0,70,0.00,,---,0.00,830.00,VWS V14.01,2013-06-04 15:14:00,
2013-06-04 11:19:00,75.8,66.1,29.96,NE,44,0.0,0.0,72,0.00,,---,0.00,824.00,VWS V14.01,2013-06-04 15:19:00,
2013-06-04 11:24:00,76.4,65.5,29.96,NE,44,1.0,1.0,69,0.00,,---,0.00,911.00,VWS V14.01,2013-06-04 15:24:00,
2013-06-04 11:29:00,76.4,64.2,29.96,NE,36,0.0,2.0,66,0.00,,---,0.00,963.00,VWS V14.01,2013-06-04 15:29:00,
2013-06-04 11:34:00,76.2,66.1,29.96,NE,42,0.0,3.0,71,0.00,,---,0.00,954.00,VWS V14.01,2013-06-04 15:34:00,
2013-06-04 11:39:00,76.4,65.1,29.96,ENE,58,1.0,1.0,68,0.00,,---,0.00,909.00,VWS V14.01,2013-06-04 15:39:00,
2013-06-04 11:44:00,76.9,66.8,29.96,NE,34,2.0,3.0,71,0.00,,---,0.00,930.00,VWS V14.01,2013-06-04 15:44:00,
2013-06-04 11:49:00,77.5,63.0,29.96,NE,40,0.0,2.0,61,0.00,,---,0.00,831.00,VWS V14.01,2013-06-04 15:49:00,
2013-06-04 11:54:00,77.5,65.3,29.96,NE,44,0.0,3.0,66,0.00,,---,0.00,925.00,VWS V14.01,2013-06-04 15:54:00,
2013-06-04 11:59:00,77.7,63.2,29.95,NW,311,0.0,1.0,61,0.00,,---,0.00,933.00,VWS V14.01,2013-06-04 15:59:00,
2013-06-04 12:04:00,77.6,61.7,29.95,NNE,19,0.0,5.0,58,0.00,,---,0.00,947.00,VWS V14.01,2013-06-04 16:04:00,
2013-06-04 12:09:00,77.7,63.7,29.95,NNE,32,1.0,2.0,62,0.00,,---,0.00,946.00,VWS V14.01,2013-06-04 16:09:00,
2013-06-04 12:14:00,77.9,61.5,29.96,NNE,29,0.0,4.0,57,0.00,,---,0.00,954.00,VWS V14.01,2013-06-04 16:14:00,
2013-06-04 12:19:00,77.8,61.4,29.96,NE,46,0.0,1.0,57,0.00,,---,0.00,967.00,VWS V14.01,2013-06-04 16:19:00,
2013-06-04 12:24:00,77.8,62.3,29.96,NNE,25,0.0,3.0,59,0.00,,---,0.00,974.00,VWS V14.01,2013-06-04 16:24:00,
2013-06-04 12:29:00,78.0,63.5,29.96,NE,49,0.0,3.0,61,0.00,,---,0.00,988.00,VWS V14.01,2013-06-04 16:29:00,
2013-06-04 12:35:00,78.0,62.5,29.96,West,274,0.0,5.0,59,0.00,,---,0.00,1005.00,VWS V14.01,2013-06-04 16:35:00,
2013-06-04 12:40:00,78.0,63.5,29.96,NE,49,2.0,4.0,61,0.00,,---,0.00,1021.00,VWS V14.01,2013-06-04 16:40:00,
2013-06-04 12:45:00,78.0,64.4,29.95,NE,40,0.0,4.0,63,0.00,,---,0.00,276.00,VWS V14.01,2013-06-04 16:45:00,
2013-06-04 12:50:00,77.7,64.6,29.96,NE,36,0.0,2.0,64,0.00,,---,0.00,350.00,VWS V14.01,2013-06-04 16:50:00,
2013-06-04 12:55:00,77.6,62.6,29.96,NNE,30,0.0,2.0,60,0.00,,---,0.00,262.00,VWS V14.01,2013-06-04 16:55:00,
2013-06-04 13:00:00,77.3,62.8,29.95,East,90,0.0,0.0,61,0.00,,---,0.00,251.00,VWS V14.01,2013-06-04 17:00:00,
2013-06-04 13:05:00,76.9,62.4,29.95,NW,322,0.0,4.0,61,0.00,,---,0.00,1192.00,VWS V14.01,2013-06-04 17:05:00,
2013-06-04 13:10:00,77.0,63.9,29.95,NNE,15,1.0,1.0,64,0.00,,---,0.00,262.00,VWS V14.01,2013-06-04 17:10:00,
2013-06-04 13:15:00,77.2,64.5,29.95,NNE,22,0.0,1.0,65,0.00,,---,0.00,821.00,VWS V14.01,2013-06-04 17:15:00,
2013-06-04 13:20:00,77.5,63.5,29.95,NNE,32,1.0,1.0,62,0.00,,---,0.00,308.00,VWS V14.01,2013-06-04 17:20:00,
2013-06-04 13:25:00,78.0,65.3,29.95,NNE,31,1.0,2.0,65,0.00,,---,0.00,1169.00,VWS V14.01,2013-06-04 17:25:00,
2013-06-04 13:30:00,78.9,64.8,29.95,NE,40,0.0,3.0,62,0.00,,---,0.00,1129.00,VWS V14.01,2013-06-04 17:30:00,
2013-06-04 13:35:00,79.4,61.8,29.95,West,263,1.0,4.0,55,0.00,,---,0.00,1121.00,VWS V14.01,2013-06-04 17:35:00,
2013-06-04 13:41:00,79.3,66.1,29.95,NE,37,0.0,5.0,64,0.00,,---,0.00,1162.00,VWS V14.01,2013-06-04 17:41:00,
2013-06-04 13:46:00,79.8,64.2,29.95,NE,36,0.0,5.0,59,0.00,,---,0.00,320.00,VWS V14.01,2013-06-04 17:46:00,
2013-06-04 13:51:00,79.9,64.8,29.95,NE,49,2.0,2.0,60,0.00,,---,0.00,1099.00,VWS V14.01,2013-06-04 17:51:00,
2013-06-04 13:56:00,80.3,63.7,29.94,ENE,63,1.0,4.0,57,0.00,,---,0.00,1109.00,VWS V14.01,2013-06-04 17:56:00,
2013-06-04 14:02:00,80.4,66.2,29.94,ENE,74,0.0,2.0,62,0.00,,---,0.00,1167.00,VWS V14.01,2013-06-04 18:02:00,
2013-06-04 14:07:00,80.7,64.1,29.94,ENE,74,0.0,2.0,57,0.00,,---,0.00,1167.00,VWS V14.01,2013-06-04 18:07:00,
2013-06-04 14:12:00,80.6,64.5,29.94,South,173,0.0,1.0,58,0.00,,---,0.00,1137.00,VWS V14.01,2013-06-04 18:12:00,
2013-06-04 14:17:00,81.2,66.0,29.94,ENE,59,0.0,3.0,60,0.00,,---,0.00,367.00,VWS V14.01,2013-06-04 18:17:00,
2013-06-04 14:22:00,81.7,66.5,29.94,NE,42,0.0,2.0,60,0.00,,---,0.00,1179.00,VWS V14.01,2013-06-04 18:22:00,
2013-06-04 14:27:00,82.0,62.7,29.95,NE,42,0.0,3.0,52,0.00,,---,0.00,404.00,VWS V14.01,2013-06-04 18:27:00,
2013-06-04 14:32:00,81.4,64.2,29.95,NE,42,0.0,2.0,56,0.00,,---,0.00,376.00,VWS V14.01,2013-06-04 18:32:00,
2013-06-04 14:37:00,80.7,65.1,29.95,NE,42,0.0,2.0,59,0.00,,---,0.00,524.00,VWS V14.01,2013-06-04 18:37:00,
2013-06-04 14:42:00,80.8,64.2,29.95,NE,42,0.0,1.0,57,0.00,,---,0.00,656.00,VWS V14.01,2013-06-04 18:42:00,
2013-06-04 14:47:00,81.2,65.0,29.94,ENE,57,1.0,3.0,58,0.00,,---,0.00,1248.00,VWS V14.01,2013-06-04 18:47:00,
2013-06-04 14:52:00,81.1,62.4,29.94,NNE,31,0.0,5.0,53,0.00,,---,0.00,385.00,VWS V14.01,2013-06-04 18:52:00,
2013-06-04 14:57:00,80.7,64.1,29.94,NE,51,0.0,5.0,57,0.00,,---,0.00,394.00,VWS V14.01,2013-06-04 18:57:00,
2013-06-04 15:02:00,80.5,65.8,29.94,NE,51,0.0,1.0,61,0.00,,---,0.00,475.00,VWS V14.01,2013-06-04 19:02:00,
2013-06-04 15:07:00,80.5,61.8,29.94,West,280,0.0,2.0,53,0.00,,---,0.00,1078.00,VWS V14.01,2013-06-04 19:07:00,
2013-06-04 15:12:00,80.7,65.1,29.94,NE,40,0.0,2.0,59,0.00,,---,0.00,1063.00,VWS V14.01,2013-06-04 19:12:00,
2013-06-04 15:17:00,81.3,67.5,29.93,NE,56,0.0,2.0,63,0.00,,---,0.00,1100.00,VWS V14.01,2013-06-04 19:17:00,
2013-06-04 15:22:00,82.1,67.3,29.93,NE,51,0.0,5.0,61,0.00,,---,0.00,1121.00,VWS V14.01,2013-06-04 19:22:00,
2013-06-04 15:27:00,82.7,64.9,29.93,NNE,32,3.0,5.0,55,0.00,,---,0.00,1160.00,VWS V14.01,2013-06-04 19:27:00,
2013-06-04 15:32:00,82.5,65.2,29.93,NNE,16,0.0,3.0,56,0.00,,---,0.00,330.00,VWS V14.01,2013-06-04 19:32:00,
2013-06-04 15:37:00,82.1,65.9,29.93,NNE,16,1.0,3.0,58,0.00,,---,0.00,427.00,VWS V14.01,2013-06-04 19:37:00,
2013-06-04 15:43:00,81.4,63.7,29.93,NNE,16,0.0,1.0,55,0.00,,---,0.00,355.00,VWS V14.01,2013-06-04 19:43:00,
2013-06-04 15:48:00,81.1,63.9,29.92,NNE,16,0.0,1.0,56,0.00,,---,0.00,1002.00,VWS V14.01,2013-06-04 19:48:00,
2013-06-04 15:53:00,80.9,63.2,29.93,NNE,16,0.0,2.0,55,0.00,,---,0.00,1028.00,VWS V14.01,2013-06-04 19:53:00,
2013-06-04 15:58:00,80.7,63.0,29.93,NE,45,0.0,4.0,55,0.00,,---,0.00,244.00,VWS V14.01,2013-06-04 19:58:00,
2013-06-04 16:03:00,80.2,62.6,29.93,West,272,0.0,2.0,55,0.00,,---,0.00,323.00,VWS V14.01,2013-06-04 20:03:00,
2013-06-04 16:08:00,80.1,62.5,29.93,NNW,341,0.0,2.0,55,0.00,,---,0.00,497.00,VWS V14.01,2013-06-04 20:08:00,
2013-06-04 16:13:00,80.3,64.2,29.92,NNW,340,1.0,1.0,58,0.00,,---,0.00,879.00,VWS V14.01,2013-06-04 20:13:00,
2013-06-04 16:18:00,81.0,62.8,29.92,WNW,289,0.0,2.0,54,0.00,,---,0.00,858.00,VWS V14.01,2013-06-04 20:18:00,
2013-06-04 16:23:00,81.2,65.0,29.92,WNW,298,0.0,4.0,58,0.00,,---,0.00,833.00,VWS V14.01,2013-06-04 20:23:00,
2013-06-04 16:28:00,81.7,66.0,29.92,NE,34,1.0,4.0,59,0.00,,---,0.00,830.00,VWS V14.01,2013-06-04 20:28:00,
2013-06-04 16:33:00,82.1,62.8,29.92,NE,39,0.0,4.0,52,0.00,,---,0.00,830.00,VWS V14.01,2013-06-04 20:33:00,
2013-06-04 16:38:00,82.1,64.3,29.92,NE,55,1.0,4.0,55,0.00,,---,0.00,819.00,VWS V14.01,2013-06-04 20:38:00,
2013-06-04 16:44:00,82.0,63.7,29.91,ENE,61,0.0,2.0,54,0.00,,---,0.00,793.00,VWS V14.01,2013-06-04 20:44:00,
2013-06-04 16:49:00,82.2,66.9,29.92,NNE,33,0.0,1.0,60,0.00,,---,0.00,821.00,VWS V14.01,2013-06-04 20:49:00,
2013-06-04 16:54:00,82.3,65.6,29.91,ENE,61,0.0,2.0,57,0.00,,---,0.00,241.00,VWS V14.01,2013-06-04 20:54:00,
2013-06-04 16:59:00,81.5,65.8,29.91,NE,34,0.0,1.0,59,0.00,,---,0.00,814.00,VWS V14.01,2013-06-04 20:59:00,
2013-06-04 17:04:00,82.0,66.8,29.91,NE,34,0.0,1.0,60,0.00,,---,0.00,761.00,VWS V14.01,2013-06-04 21:04:00,
2013-06-04 17:09:00,82.2,64.4,29.91,NE,34,0.0,0.0,55,0.00,,---,0.00,207.00,VWS V14.01,2013-06-04 21:09:00,
2013-06-04 17:14:00,82.1,64.9,29.91,NE,34,0.0,0.0,56,0.00,,---,0.00,253.00,VWS V14.01,2013-06-04 21:14:00,
2013-06-04 17:19:00,81.6,64.9,29.91,NE,34,0.0,0.0,57,0.00,,---,0.00,237.00,VWS V14.01,2013-06-04 21:19:00,
2013-06-04 17:24:00,81.2,65.0,29.91,NE,34,0.0,1.0,58,0.00,,---,0.00,151.00,VWS V14.01,2013-06-04 21:24:00,
2013-06-04 17:29:00,80.9,64.8,29.91,NE,34,0.0,0.0,58,0.00,,---,0.00,642.00,VWS V14.01,2013-06-04 21:29:00,
2013-06-04 17:35:00,80.9,64.2,29.91,NE,34,0.0,1.0,57,0.00,,---,0.00,606.00,VWS V14.01,2013-06-04 21:35:00,
2013-06-04 17:40:00,81.4,63.2,29.91,NE,34,0.0,0.0,54,0.00,,---,0.00,578.00,VWS V14.01,2013-06-04 21:40:00,
2013-06-04 17:45:00,81.9,64.7,29.91,NE,34,1.0,1.0,56,0.00,,---,0.00,533.00,VWS V14.01,2013-06-04 21:45:00,
2013-06-04 17:50:00,82.0,64.3,29.91,NE,34,0.0,1.0,55,0.00,,---,0.00,538.00,VWS V14.01,2013-06-04 21:50:00,
2013-06-04 17:55:00,82.1,63.3,29.91,NE,34,0.0,1.0,53,0.00,,---,0.00,504.00,VWS V14.01,2013-06-04 21:55:00,
2013-06-04 18:00:00,82.4,64.6,29.91,NE,34,0.0,1.0,55,0.00,,---,0.00,490.00,VWS V14.01,2013-06-04 22:00:00,
2013-06-04 18:18:00,82.6,65.3,29.91,NE,34,0.0,1.0,56,0.00,,---,0.00,461.00,VWS V14.01,2013-06-04 22:18:00,
2013-06-04 18:24:00,82.9,64.6,29.91,NE,34,0.0,1.0,54,0.00,,---,0.00,434.00,VWS V14.01,2013-06-04 22:24:00,
2013-06-04 18:28:00,83.0,64.1,29.91,NE,34,1.0,1.0,53,0.00,,---,0.00,429.00,VWS V14.01,2013-06-04 22:28:00,
2013-06-04 18:34:00,82.9,65.1,29.91,NE,34,0.0,1.0,55,0.00,,---,0.00,410.00,VWS V14.01,2013-06-04 22:34:00,
2013-06-04 18:39:00,83.1,65.8,29.91,NE,34,0.0,1.0,56,0.00,,---,0.00,387.00,VWS V14.01,2013-06-04 22:39:00,
2013-06-04 18:44:00,82.9,64.6,29.91,NE,34,0.0,1.0,54,0.00,,---,0.00,374.00,VWS V14.01,2013-06-04 22:44:00,
2013-06-04 18:49:00,82.8,66.0,29.91,NE,34,0.0,0.0,57,0.00,,---,0.00,352.00,VWS V14.01,2013-06-04 22:49:00,
2013-06-04 18:54:00,83.0,67.2,29.90,NE,34,0.0,1.0,59,0.00,,---,0.00,330.00,VWS V14.01,2013-06-04 22:54:00,
2013-06-04 18:59:00,83.2,65.4,29.91,NE,34,0.0,0.0,55,0.00,,---,0.00,306.00,VWS V14.01,2013-06-04 22:59:00,
2013-06-04 19:04:00,83.1,66.3,29.91,NE,34,0.0,1.0,57,0.00,,---,0.00,287.00,VWS V14.01,2013-06-04 23:04:00,
2013-06-04 19:09:00,83.0,65.7,29.91,NE,34,0.0,2.0,56,0.00,,---,0.00,267.00,VWS V14.01,2013-06-04 23:09:00,
2013-06-04 19:14:00,82.9,65.6,29.91,NE,34,0.0,2.0,56,0.00,,---,0.00,250.00,VWS V14.01,2013-06-04 23:14:00,
2013-06-04 19:19:00,82.9,66.6,29.91,NNE,32,0.0,0.0,58,0.00,,---,0.00,229.00,VWS V14.01,2013-06-04 23:19:00,
2013-06-04 19:24:00,82.7,65.9,29.91,NNE,32,0.0,1.0,57,0.00,,---,0.00,209.00,VWS V14.01,2013-06-04 23:24:00,
2013-06-04 19:29:00,82.3,66.1,29.90,NE,34,0.0,0.0,58,0.00,,---,0.00,176.00,VWS V14.01,2013-06-04 23:29:00,
2013-06-04 19:35:00,82.2,66.0,29.91,NE,34,0.0,0.0,58,0.00,,---,0.00,160.00,VWS V14.01,2013-06-04 23:35:00,
2013-06-04 19:40:00,82.0,66.3,29.91,NE,34,0.0,0.0,59,0.00,,---,0.00,105.00,VWS V14.01,2013-06-04 23:40:00,
2013-06-04 19:45:00,81.8,65.1,29.91,NE,34,0.0,0.0,57,0.00,,---,0.00,58.00,VWS V14.01,2013-06-04 23:45:00,
2013-06-04 19:50:00,81.5,66.8,29.91,NE,34,0.0,0.0,61,0.00,,---,0.00,54.00,VWS V14.01,2013-06-04 23:50:00,
2013-06-04 19:55:00,81.2,67.4,29.91,NE,34,0.0,0.0,63,0.00,,---,0.00,49.00,VWS V14.01,2013-06-04 23:55:00,
2013-06-04 20:00:00,80.5,65.3,29.91,NE,34,0.0,0.0,60,0.00,,---,0.00,44.00,VWS V14.01,2013-06-05 00:00:00,
2013-06-04 20:05:00,79.8,66.6,29.91,NE,34,0.0,0.0,64,0.00,,---,0.00,47.00,VWS V14.01,2013-06-05 00:05:00,
2013-06-04 20:10:00,79.0,66.2,29.91,NE,34,0.0,0.0,65,0.00,,---,0.00,35.00,VWS V14.01,2013-06-05 00:10:00,
2013-06-04 20:15:00,78.3,65.1,29.91,NE,34,0.0,0.0,64,0.00,,---,0.00,37.00,VWS V14.01,2013-06-05 00:15:00,
2013-06-04 20:20:00,77.5,64.8,29.91,NE,34,0.0,0.0,65,0.00,,---,0.00,33.00,VWS V14.01,2013-06-05 00:20:00,
2013-06-04 20:22:00,75.8,64.5,29.91,NE,34,0.0,0.0,68,0.00,,---,0.00,12.00,VWS V14.01,2013-06-05 00:22:00,
2013-06-04 20:25:00,76.7,65.8,29.91,NE,34,0.0,0.0,69,0.00,,---,0.00,16.00,VWS V14.01,2013-06-05 00:25:00,
2013-06-04 20:30:00,76.0,64.7,29.91,NE,34,0.0,0.0,68,0.00,,---,0.00,12.00,VWS V14.01,2013-06-05 00:30:00,
2013-06-04 20:36:00,75.1,63.8,29.92,NE,34,0.0,1.0,68,0.00,,---,0.00,9.00,VWS V14.01,2013-06-05 00:36:00,
2013-06-04 20:41:00,74.3,64.3,29.91,NE,34,0.0,0.0,71,0.00,,---,0.00,7.00,VWS V14.01,2013-06-05 00:41:00,
2013-06-04 20:46:00,73.9,63.9,29.91,NE,34,0.0,0.0,71,0.00,,---,0.00,0.00,VWS V14.01,2013-06-05 00:46:00,
2013-06-04 20:52:00,73.4,63.4,29.91,NE,34,0.0,0.0,71,0.00,,---,0.00,0.00,VWS V14.01,2013-06-05 00:52:00,
2013-06-04 20:57:00,73.0,63.5,29.91,NE,34,0.0,0.0,72,0.00,,---,0.00,0.00,VWS V14.01,2013-06-05 00:57:00,
2013-06-04 21:02:00,72.6,63.5,29.92,NE,34,0.0,0.0,73,0.00,,---,0.00,0.00,VWS V14.01,2013-06-05 01:02:00,
2013-06-04 21:07:00,72.2,63.1,29.92,NE,34,0.0,0.0,73,0.00,,---,0.00,0.00,VWS V14.01,2013-06-05 01:07:00,
2013-06-04 21:12:00,71.9,63.5,29.92,NE,34,0.0,0.0,75,0.00,,---,0.00,0.00,VWS V14.01,2013-06-05 01:12:00,
2013-06-04 21:17:00,71.5,63.2,29.92,NE,34,0.0,0.0,75,0.00,,---,0.00,0.00,VWS V14.01,2013-06-05 01:17:00,
2013-06-04 21:22:00,71.2,63.3,29.92,NE,34,0.0,0.0,76,0.00,,---,0.00,0.00,VWS V14.01,2013-06-05 01:22:00,
2013-06-04 21:27:00,70.9,63.7,29.93,NE,34,0.0,0.0,78,0.00,,---,0.00,0.00,VWS V14.01,2013-06-05 01:27:00,
2013-06-04 21:32:00,70.6,63.8,29.93,NE,34,0.0,0.0,79,0.00,,---,0.00,0.00,VWS V14.01,2013-06-05 01:32:00,
2013-06-04 21:37:00,70.4,63.6,29.93,NE,34,0.0,0.0,79,0.00,,---,0.00,0.00,VWS V14.01,2013-06-05 01:37:00,
2013-06-04 21:42:00,70.5,63.3,29.93,NE,34,0.0,0.0,78,0.00,,---,0.00,0.00,VWS V14.01,2013-06-05 01:42:00,
2013-06-04 21:43:00,70.6,63.4,29.94,NE,34,0.0,0.0,78,0.00,,---,0.00,0.00,VWS V14.01,2013-06-05 01:43:00,
2013-06-04 21:47:00,70.7,63.9,29.94,NE,34,0.0,1.0,79,0.00,,---,0.00,0.00,VWS V14.01,2013-06-05 01:47:00,
2013-06-04 21:53:00,70.6,63.4,29.94,NE,34,0.0,0.0,78,0.00,,---,0.00,0.00,VWS V14.01,2013-06-05 01:53:00,
2013-06-04 21:58:00,70.5,64.0,29.94,NE,34,0.0,0.0,80,0.00,,---,0.00,0.00,VWS V14.01,2013-06-05 01:58:00,
2013-06-04 22:03:00,70.3,63.8,29.94,NE,34,0.0,0.0,80,0.00,,---,0.00,0.00,VWS V14.01,2013-06-05 02:03:00,
2013-06-04 22:08:00,69.9,63.5,29.94,NE,34,0.0,0.0,80,0.00,,---,0.00,0.00,VWS V14.01,2013-06-05 02:08:00,
2013-06-04 22:13:00,69.6,63.2,29.95,NE,34,0.0,0.0,80,0.00,,---,0.00,0.00,VWS V14.01,2013-06-05 02:13:00,
2013-06-04 22:18:00,69.3,62.9,29.94,NE,34,0.0,0.0,80,0.00,,---,0.00,0.00,VWS V14.01,2013-06-05 02:18:00,
2013-06-04 22:23:00,69.1,63.0,29.94,NE,34,0.0,0.0,81,0.00,,---,0.00,0.00,VWS V14.01,2013-06-05 02:23:00,
2013-06-04 22:28:00,68.9,62.8,29.95,NE,34,0.0,0.0,81,0.00,,---,0.00,0.00,VWS V14.01,2013-06-05 02:28:00,
2013-06-04 22:33:00,68.8,63.1,29.95,NE,34,0.0,0.0,82,0.00,,---,0.00,0.00,VWS V14.01,2013-06-05 02:33:00,
2013-06-04 22:38:00,68.6,62.9,29.95,NE,34,0.0,0.0,82,0.00,,---,0.00,0.00,VWS V14.01,2013-06-05 02:38:00,
2013-06-04 22:43:00,68.4,62.7,29.95,NE,34,0.0,0.0,82,0.00,,---,0.00,0.00,VWS V14.01,2013-06-05 02:43:00,
2013-06-04 22:48:00,68.2,62.5,29.95,NE,34,0.0,0.0,82,0.00,,---,0.00,0.00,VWS V14.01,2013-06-05 02:48:00,
2013-06-04 22:54:00,68.0,62.3,29.95,NE,34,0.0,0.0,82,0.00,,---,0.00,0.00,VWS V14.01,2013-06-05 02:54:00,
2013-06-04 22:59:00,67.8,62.1,29.95,NE,34,0.0,0.0,82,0.00,,---,0.00,0.00,VWS V14.01,2013-06-05 02:59:00,
2013-06-04 23:04:00,67.6,62.6,29.95,NE,34,0.0,0.0,84,0.00,,---,0.00,0.00,VWS V14.01,2013-06-05 03:04:00,
2013-06-04 23:09:00,67.5,62.2,29.96,NE,34,0.0,0.0,83,0.00,,---,0.00,0.00,VWS V14.01,2013-06-05 03:09:00,
2013-06-04 23:14:00,67.3,62.3,29.96,NE,34,0.0,0.0,84,0.00,,---,0.00,0.00,VWS V14.01,2013-06-05 03:14:00,
2013-06-04 23:19:00,67.1,61.8,29.95,NE,34,0.0,0.0,83,0.00,,---,0.00,0.00,VWS V14.01,2013-06-05 03:19:00,
2013-06-04 23:24:00,67.0,62.0,29.95,NE,34,0.0,0.0,84,0.00,,---,0.00,0.00,VWS V14.01,2013-06-05 03:24:00,
2013-06-04 23:29:00,66.9,61.9,29.95,NE,34,0.0,0.0,84,0.00,,---,0.00,0.00,VWS V14.01,2013-06-05 03:29:00,
2013-06-04 23:34:00,66.7,61.7,29.95,NE,34,0.0,0.0,84,0.00,,---,0.00,0.00,VWS V14.01,2013-06-05 03:34:00,
2013-06-04 23:39:00,66.6,62.0,29.95,NE,34,0.0,0.0,85,0.00,,---,0.00,0.00,VWS V14.01,2013-06-05 03:39:00,
2013-06-04 23:44:00,66.4,61.8,29.95,NE,34,0.0,0.0,85,0.00,,---,0.00,0.00,VWS V14.01,2013-06-05 03:44:00,
2013-06-04 23:49:00,66.3,61.7,29.95,NE,34,0.0,0.0,85,0.00,,---,0.00,0.00,VWS V14.01,2013-06-05 03:49:00,
2013-06-04 23:54:00,66.2,61.6,29.95,NE,34,0.0,0.0,85,0.00,,---,0.00,0.00,VWS V14.01,2013-06-05 03:54:00,
2013-06-04 23:59:00,66.1,61.5,29.95,NE,34,0.0,0.0,85,0.00,,---,0.00,0.00,VWS V14.01,2013-06-05 03:59:00,